Location: Navajo
(48.7922°N, 105.0603°W)
Time: 11:41:36
(UTC+00:00)

N. Korean satellite - Visible Passes

Search period start: 22 January 2022 00:00
Search period end: 01 February 2022 00:00
Orbit: 447 x 491 km, 97.3° (Epoch: 21 January)

Date Brightness Start Highest point End Pass type
(mag) Time Alt. Az. Time Alt. Az. Time Alt. Az.
22 Jan 6.4 12:26:43 10° NNE 12:30:22 85° WNW 12:30:22 85° WNW visible
23 Jan 10.1 00:40:01 10° WSW 00:40:59 11° W 00:41:58 10° WNW visible
23 Jan 7.8 11:57:40 10° NNE 12:01:10 42° E 12:01:16 42° ESE visible
23 Jan 8.1 13:31:33 10° NNW 13:34:01 17° WNW 13:35:21 15° W visible
24 Jan 9.1 11:29:03 10° NE 11:31:50 20° E 11:32:12 20° ESE visible
24 Jan 7.2 13:01:45 10° N 13:05:04 33° WNW 13:06:16 26° WSW visible
25 Jan 6.4 12:32:20 10° N 12:35:59 73° WNW 12:37:10 40° SSW visible
26 Jan 7.4 12:03:12 10° NNE 12:06:46 49° E 12:08:06 32° SSE visible
26 Jan 8.2 13:37:20 10° NNW 13:39:32 15° WNW 13:41:44 10° W visible
27 Jan 8.9 11:34:26 10° NE 11:37:24 23° E 11:39:02 17° SE visible
27 Jan 7.4 13:07:22 10° N 13:10:33 29° WNW 13:13:05 14° WSW visible
28 Jan 9.9 11:06:39 10° ENE 11:07:55 11° E 11:09:11 10° ESE visible
28 Jan 6.5 12:37:50 10° N 12:41:27 62° WNW 12:44:02 18° SSW visible
29 Jan 7.1 12:08:36 10° NNE 12:12:13 58° E 12:15:01 16° S visible
29 Jan 8.4 13:43:02 10° NNW 13:44:55 14° WNW 13:46:48 10° W visible
30 Jan 8.7 11:39:42 10° NE 11:42:51 26° E 11:45:57 10° SSE visible
30 Jan 7.6 13:12:51 10° N 13:15:55 26° WNW 13:18:58 10° SW visible
31 Jan 9.8 11:11:33 10° ENE 11:13:20 13° E 11:15:07 10° ESE visible
31 Jan 6.6 12:43:13 10° N 12:46:48 53° WNW 12:50:19 10° SSW visible
